Location: Barcelona
(41.3830°N, 2.1830°E)
Time: 20:12:51
(UTC+01:00)

ISS - Pass Details

Date: 27 February 2021
Orbit: 417 x 422 km, 51.6° (Epoch: 26 February)

Event Time Altitude Azimuth Distance (km) Brightness Sun altitude
Exits shadow 06:25:08 14° 316° (NW) 1,296 -1.7 -12.7°
Maximum altitude 06:26:37 17° 347° (NNW) 1,134 -1.7 -12.4°
Drops below altitude 10° 06:28:57 10° 31° (NNE) 1,499 -0.5 -12.0°
Sets 06:31:34 0° 52° (NE) 2,365 0.9 -11.5°
